WXM80 ListenWXM80 Stop

You find our weather info also at:

UK Metoffice

WeatherCloud

Weather Underground

Northeastern Weather Network

AWEKAS

Citizen Weather Observer Program (CWOP)

HAMweather, WeatherForYou, PWS Weather


Weather Underground History page Text

Daily Summary for June 6, 2017 Units:  English    Metric   Both
« Previous Day
Next Day »
Daily Weekly Monthly Yearly Custom
  High: Low: Average:
Temperature: 57.6 °F 52.4 °F 55 °F
Dew Point: 56.8 °F 48.3 °F 52.7 °F
Humidity: 97 % 84 % 92 %
Wind Speed: 10.0 mph 0.6 mph 5.4 mph
Wind Gust: 17.0 mph - -
Wind:- - ENE
Pressure: 29.89 in 29.66 in -
Precipitation: 0.09 in    
Historical Graphs
 
 
Tabular Data for June 6, 2017
Time Temperature Dew Point Pressure Wind Wind Speed Wind Gust Humidity Rainfall Rate (Hourly)
00:00 57.6 °F 56.8 °F 29.71 in ENE 6.2 mph 10.4 mph 97 % 0.00 in
00:05 57.5 °F 56.7 °F 29.70 in ENE 4.8 mph 11.5 mph 97 % 0.00 in
00:10 57.5 °F 56.7 °F 29.70 in ENE 5.9 mph 13.0 mph 97 % 0.00 in
00:15 57.3 °F 56.5 °F 29.71 in ENE 6.9 mph 11.5 mph 97 % 0.00 in
00:20 57.2 °F 56.4 °F 29.72 in NE 6.8 mph 11.5 mph 97 % 0.00 in
00:25 57.2 °F 56.4 °F 29.71 in ENE 6.9 mph 13.8 mph 97 % 0.00 in
00:30 57.1 °F 56.3 °F 29.71 in East 6.8 mph 10.4 mph 97 % 0.00 in
00:35 57.0 °F 56.2 °F 29.71 in ENE 6.3 mph 12.7 mph 97 % 0.00 in
00:40 56.9 °F 56.1 °F 29.71 in NE 4.8 mph 11.5 mph 97 % 0.00 in
00:45 56.8 °F 56.0 °F 29.71 in East 8.1 mph 11.5 mph 97 % 0.00 in
00:50 56.7 °F 55.9 °F 29.71 in ENE 8.1 mph 11.5 mph 97 % 0.00 in
00:55 56.6 °F 55.8 °F 29.70 in ENE 8.1 mph 11.5 mph 97 % 0.00 in
01:00 56.5 °F 55.7 °F 29.70 in East 7.2 mph 12.7 mph 97 % 0.00 in
01:05 56.4 °F 55.6 °F 29.70 in ENE 8.0 mph 12.7 mph 97 % 0.00 in
01:10 56.4 °F 55.3 °F 29.70 in ENE 6.8 mph 11.5 mph 96 % 0.00 in
01:15 56.4 °F 55.3 °F 29.70 in East 8.7 mph 10.0 mph 96 % 0.00 in
01:20 56.5 °F 55.4 °F 29.70 in ENE 6.2 mph 12.7 mph 96 % 0.00 in
01:26 56.4 °F 55.3 °F 29.69 in NE 7.0 mph 11.5 mph 96 % 0.00 in
01:31 56.4 °F 55.3 °F 29.69 in ENE 8.0 mph 13.0 mph 96 % 0.00 in
01:36 56.2 °F 55.1 °F 29.69 in ENE 7.0 mph 14.0 mph 96 % 0.00 in
01:41 56.2 °F 55.1 °F 29.69 in ENE 8.0 mph 13.0 mph 96 % 0.00 in
01:46 56.2 °F 55.1 °F 29.69 in ENE 8.0 mph 12.0 mph 96 % 0.00 in
01:50 56.2 °F 54.8 °F 29.69 in ENE 6.5 mph 9.2 mph 95 % 0.00 in
01:56 56.2 °F 54.8 °F 29.68 in ENE 8.0 mph 13.0 mph 95 % 0.00 in
02:01 56.2 °F 54.8 °F 29.68 in NE 9.0 mph 11.5 mph 95 % 0.00 in
02:06 56.2 °F 54.8 °F 29.68 in NE 9.4 mph 11.5 mph 95 % 0.00 in
02:10 56.2 °F 54.8 °F 29.68 in ENE 7.8 mph 11.0 mph 95 % 0.00 in
02:16 56.2 °F 54.5 °F 29.68 in ENE 10.0 mph 14.0 mph 94 % 0.00 in
02:21 56.2 °F 54.5 °F 29.68 in ENE 8.0 mph 13.0 mph 94 % 0.00 in
02:26 56.1 °F 54.4 °F 29.68 in ENE 10.0 mph 17.0 mph 94 % 0.00 in
02:31 56.1 °F 54.4 °F 29.68 in ENE 10.0 mph 15.0 mph 94 % 0.00 in
02:36 56.2 °F 54.5 °F 29.68 in East 9.4 mph 12.7 mph 94 % 0.00 in
02:41 56.2 °F 54.5 °F 29.68 in ENE 8.0 mph 14.0 mph 94 % 0.00 in
02:46 56.2 °F 54.5 °F 29.68 in ENE 9.0 mph 13.0 mph 94 % 0.00 in
02:51 56.2 °F 54.5 °F 29.68 in ENE 8.0 mph 13.0 mph 94 % 0.00 in
02:56 56.2 °F 54.5 °F 29.68 in ENE 9.0 mph 15.0 mph 94 % 0.00 in
03:01 56.2 °F 54.5 °F 29.68 in ENE 10.0 mph 12.7 mph 94 % 0.00 in
03:06 56.2 °F 54.5 °F 29.68 in NE 8.0 mph 15.0 mph 94 % 0.00 in
03:11 56.2 °F 54.5 °F 29.68 in ENE 7.5 mph 11.5 mph 94 % 0.00 in
03:16 56.2 °F 54.5 °F 29.67 in ENE 8.6 mph 13.0 mph 94 % 0.00 in
03:21 56.1 °F 54.4 °F 29.67 in ENE 8.4 mph 13.8 mph 94 % 0.00 in
03:26 56.1 °F 54.4 °F 29.67 in ENE 6.4 mph 13.8 mph 94 % 0.00 in
03:31 56.0 °F 54.3 °F 29.67 in ENE 7.7 mph 12.7 mph 94 % 0.00 in
03:36 56.0 °F 54.3 °F 29.67 in ENE 6.9 mph 11.5 mph 94 % 0.00 in
03:41 56.1 °F 54.4 °F 29.67 in ENE 5.3 mph 11.5 mph 94 % 0.00 in
03:46 56.1 °F 54.4 °F 29.67 in ENE 6.8 mph 12.7 mph 94 % 0.00 in
03:51 56.1 °F 54.4 °F 29.66 in East 7.5 mph 9.2 mph 94 % 0.00 in
03:56 56.1 °F 54.4 °F 29.66 in East 6.1 mph 11.5 mph 94 % 0.00 in
04:01 56.1 °F 54.1 °F 29.66 in ENE 9.1 mph 13.0 mph 93 % 0.00 in
04:06 56.1 °F 54.1 °F 29.66 in ENE 8.0 mph 10.4 mph 93 % 0.00 in
04:11 56.1 °F 54.1 °F 29.66 in ENE 5.7 mph 10.0 mph 93 % 0.00 in
04:16 56.2 °F 54.2 °F 29.66 in NE 6.2 mph 9.2 mph 93 % 0.00 in
04:21 56.2 °F 54.2 °F 29.66 in NE 4.7 mph 10.4 mph 93 % 0.00 in
04:26 56.2 °F 54.2 °F 29.66 in ENE 7.7 mph 10.4 mph 93 % 0.00 in
04:31 56.2 °F 54.2 °F 29.66 in NE 6.8 mph 9.2 mph 93 % 0.00 in
04:36 56.2 °F 54.2 °F 29.66 in NE 6.1 mph 7.0 mph 93 % 0.00 in
04:41 56.2 °F 54.2 °F 29.66 in East 6.2 mph 11.0 mph 93 % 0.00 in
04:46 56.1 °F 54.1 °F 29.66 in ENE 7.3 mph 10.4 mph 93 % 0.00 in
04:51 56.1 °F 54.1 °F 29.66 in ENE 7.0 mph 11.5 mph 93 % 0.00 in
04:56 56.1 °F 54.1 °F 29.66 in NE 7.6 mph 11.5 mph 93 % 0.00 in
05:01 56.1 °F 54.1 °F 29.66 in ENE 7.6 mph 13.8 mph 93 % 0.00 in
05:06 56.1 °F 54.1 °F 29.66 in NE 5.6 mph 11.5 mph 93 % 0.00 in
05:12 56.1 °F 54.1 °F 29.66 in ENE 5.7 mph 8.1 mph 93 % 0.00 in
05:17 56.0 °F 54.0 °F 29.66 in NNE 5.2 mph 10.4 mph 93 % 0.00 in
05:22 56.0 °F 54.0 °F 29.67 in NE 7.4 mph 9.0 mph 93 % 0.00 in
05:27 56.0 °F 54.0 °F 29.67 in ENE 4.0 mph 8.0 mph 93 % 0.00 in
05:32 56.0 °F 53.7 °F 29.67 in ENE 6.4 mph 9.2 mph 92 % 0.00 in
05:37 55.9 °F 53.6 °F 29.67 in East 7.5 mph 11.5 mph 92 % 0.00 in
05:42 55.9 °F 53.6 °F 29.67 in ENE 5.3 mph 9.2 mph 92 % 0.00 in
05:47 55.9 °F 53.6 °F 29.67 in ENE 5.7 mph 9.2 mph 92 % 0.00 in
05:52 55.9 °F 53.6 °F 29.68 in ENE 4.4 mph 10.4 mph 92 % 0.00 in
05:57 55.9 °F 53.6 °F 29.68 in NNE 4.0 mph 11.5 mph 92 % 0.00 in
06:02 55.9 °F 53.9 °F 29.68 in ENE 2.9 mph 8.1 mph 93 % 0.00 in
06:07 55.9 °F 53.9 °F 29.69 in ENE 3.0 mph 5.8 mph 93 % 0.00 in
06:12 55.8 °F 53.8 °F 29.69 in NNE 3.9 mph 8.1 mph 93 % 0.00 in
06:17 55.7 °F 53.7 °F 29.70 in NNE 4.0 mph 5.8 mph 93 % 0.00 in
06:22 55.7 °F 53.7 °F 29.70 in NNW 5.1 mph 13.0 mph 93 % 0.00 in
06:27 55.6 °F 53.6 °F 29.70 in North 3.6 mph 5.8 mph 93 % 0.00 in
06:32 55.6 °F 53.6 °F 29.70 in North 6.0 mph 11.5 mph 93 % 0.00 in
06:37 55.5 °F 53.5 °F 29.70 in NNE 4.7 mph 6.9 mph 93 % 0.00 in
06:42 55.4 °F 53.4 °F 29.69 in NE 6.2 mph 11.5 mph 93 % 0.00 in
06:47 55.3 °F 53.6 °F 29.69 in ENE 4.9 mph 9.2 mph 94 % 0.00 in
06:52 55.3 °F 53.6 °F 29.70 in NE 3.9 mph 5.8 mph 94 % 0.00 in
06:57 55.3 °F 53.6 °F 29.70 in ENE 4.1 mph 8.1 mph 94 % 0.00 in
07:02 55.3 °F 53.6 °F 29.70 in ENE 7.5 mph 11.5 mph 94 % 0.00 in
07:07 55.2 °F 53.2 °F 29.71 in ENE 4.3 mph 9.2 mph 93 % 0.00 in
07:12 55.2 °F 53.2 °F 29.71 in ESE 4.7 mph 15.0 mph 93 % 0.00 in
07:18 55.1 °F 53.4 °F 29.71 in ENE 3.6 mph 10.4 mph 94 % 0.00 in
07:23 55.1 °F 53.4 °F 29.71 in East 4.0 mph 6.9 mph 94 % 0.00 in
07:28 55.1 °F 53.1 °F 29.71 in ENE 7.3 mph 12.7 mph 93 % 0.00 in
07:33 55.0 °F 53.0 °F 29.70 in NE 6.6 mph 11.5 mph 93 % 0.00 in
07:38 55.0 °F 53.0 °F 29.70 in ENE 7.5 mph 13.8 mph 93 % 0.00 in
07:43 55.0 °F 53.0 °F 29.70 in ENE 7.5 mph 13.8 mph 93 % 0.00 in
07:48 55.0 °F 53.0 °F 29.70 in ENE 7.1 mph 11.5 mph 93 % 0.00 in
07:53 55.0 °F 53.0 °F 29.70 in ENE 7.3 mph 13.0 mph 93 % 0.00 in
07:58 55.0 °F 53.0 °F 29.70 in ENE 8.1 mph 10.4 mph 93 % 0.00 in
08:03 55.0 °F 53.0 °F 29.70 in ENE 9.2 mph 13.8 mph 93 % 0.00 in
08:08 55.0 °F 53.0 °F 29.70 in ENE 8.3 mph 13.8 mph 93 % 0.00 in
08:13 55.0 °F 53.0 °F 29.69 in ENE 5.5 mph 10.4 mph 93 % 0.00 in
08:18 54.9 °F 52.9 °F 29.69 in East 7.7 mph 11.5 mph 93 % 0.01 in
08:23 54.7 °F 53.0 °F 29.70 in East 8.5 mph 13.8 mph 94 % 0.01 in
08:28 54.6 °F 52.9 °F 29.71 in East 8.0 mph 11.5 mph 94 % 0.01 in
08:33 54.5 °F 52.8 °F 29.71 in ENE 4.6 mph 11.5 mph 94 % 0.01 in
08:38 54.4 °F 52.7 °F 29.72 in ENE 9.4 mph 12.7 mph 94 % 0.02 in
08:43 54.3 °F 52.6 °F 29.71 in ENE 6.4 mph 11.0 mph 94 % 0.02 in
08:48 54.2 °F 52.5 °F 29.71 in ENE 4.8 mph 8.1 mph 94 % 0.02 in
08:53 54.2 °F 52.8 °F 29.71 in ENE 6.8 mph 11.5 mph 95 % 0.02 in
08:58 54.1 °F 52.7 °F 29.71 in ENE 8.5 mph 10.4 mph 95 % 0.02 in
09:03 54.1 °F 52.7 °F 29.72 in ENE 7.0 mph 9.2 mph 95 % 0.02 in
09:08 54.1 °F 52.7 °F 29.72 in ENE 7.2 mph 12.7 mph 95 % 0.02 in
09:13 54.0 °F 52.6 °F 29.72 in ENE 7.3 mph 11.5 mph 95 % 0.02 in
09:18 54.1 °F 52.7 °F 29.72 in ENE 9.0 mph 15.0 mph 95 % 0.01 in
09:23 54.0 °F 52.6 °F 29.71 in ENE 6.3 mph 11.5 mph 95 % 0.01 in
09:28 54.1 °F 52.4 °F 29.71 in ENE 6.5 mph 12.7 mph 94 % 0.01 in
09:33 54.1 °F 52.4 °F 29.72 in ENE 6.6 mph 13.8 mph 94 % 0.01 in
09:38 54.1 °F 52.4 °F 29.72 in ENE 8.3 mph 11.5 mph 94 % 0.00 in
09:43 54.1 °F 52.4 °F 29.71 in East 9.2 mph 12.7 mph 94 % 0.01 in
09:48 54.1 °F 52.4 °F 29.71 in ENE 7.9 mph 11.5 mph 94 % 0.01 in
09:53 54.2 °F 52.5 °F 29.71 in East 6.7 mph 11.5 mph 94 % 0.01 in
09:58 54.3 °F 52.6 °F 29.71 in ENE 6.4 mph 8.1 mph 94 % 0.01 in
10:03 54.3 °F 52.3 °F 29.71 in East 9.1 mph 11.5 mph 93 % 0.01 in
10:08 54.3 °F 52.3 °F 29.71 in ENE 6.2 mph 10.4 mph 93 % 0.01 in
10:13 54.4 °F 52.4 °F 29.72 in ENE 7.9 mph 12.7 mph 93 % 0.01 in
10:18 54.6 °F 52.6 °F 29.72 in ENE 5.7 mph 11.5 mph 93 % 0.01 in
10:23 54.7 °F 52.4 °F 29.73 in ENE 4.7 mph 9.2 mph 92 % 0.01 in
10:29 54.9 °F 52.6 °F 29.73 in ENE 5.1 mph 10.4 mph 92 % 0.01 in
10:34 54.9 °F 52.6 °F 29.73 in ENE 5.8 mph 11.5 mph 92 % 0.01 in
10:39 55.0 °F 52.7 °F 29.73 in ENE 6.2 mph 12.7 mph 92 % 0.01 in
10:44 55.1 °F 52.8 °F 29.73 in ENE 5.4 mph 11.5 mph 92 % 0.00 in
10:49 55.2 °F 52.6 °F 29.73 in ENE 6.9 mph 9.2 mph 91 % 0.00 in
10:54 55.2 °F 52.6 °F 29.74 in ENE 5.5 mph 10.4 mph 91 % 0.00 in
10:57 55.3 °F 52.7 °F 29.74 in NNE 5.5 mph 9.2 mph 91 % 0.00 in
11:02 55.2 °F 52.3 °F 29.74 in NNE 4.8 mph 9.2 mph 90 % 0.00 in
11:07 55.2 °F 52.0 °F 29.74 in ENE 7.6 mph 10.4 mph 89 % 0.00 in
11:12 55.3 °F 52.4 °F 29.74 in ENE 8.3 mph 11.5 mph 90 % 0.00 in
11:17 55.3 °F 52.1 °F 29.74 in ENE 5.2 mph 8.1 mph 89 % 0.00 in
11:22 55.4 °F 52.2 °F 29.74 in ENE 4.7 mph 8.1 mph 89 % 0.00 in
11:27 55.6 °F 52.7 °F 29.74 in NE 5.7 mph 8.1 mph 90 % 0.00 in
11:32 55.7 °F 52.5 °F 29.74 in NE 6.1 mph 10.0 mph 89 % 0.00 in
11:37 55.6 °F 52.1 °F 29.74 in ENE 3.4 mph 8.1 mph 88 % 0.00 in
11:42 55.7 °F 52.5 °F 29.74 in NE 3.0 mph 4.6 mph 89 % 0.00 in
11:47 55.7 °F 52.5 °F 29.74 in NE 2.8 mph 10.4 mph 89 % 0.00 in
11:53 55.7 °F 52.5 °F 29.74 in ENE 4.5 mph 9.0 mph 89 % 0.00 in
11:55 55.7 °F 52.5 °F 29.74 in East 5.8 mph 8.1 mph 89 % 0.00 in
12:00 55.7 °F 52.5 °F 29.74 in NE 4.9 mph 8.1 mph 89 % 0.00 in
12:05 55.7 °F 52.5 °F 29.74 in ENE 6.3 mph 9.2 mph 89 % 0.00 in
12:10 55.6 °F 52.4 °F 29.74 in NE 2.9 mph 4.6 mph 89 % 0.00 in
12:15 55.6 °F 52.4 °F 29.74 in ENE 5.9 mph 5.9 mph 89 % 0.00 in
12:20 55.6 °F 52.4 °F 29.74 in ENE 5.8 mph 9.2 mph 89 % 0.00 in
12:25 55.5 °F 52.3 °F 29.74 in ENE 3.0 mph 5.0 mph 89 % 0.00 in
12:31 55.5 °F 52.3 °F 29.74 in ENE 6.0 mph 9.0 mph 89 % 0.00 in
12:36 55.5 °F 52.3 °F 29.74 in ENE 5.0 mph 12.0 mph 89 % 0.00 in
12:41 55.5 °F 52.3 °F 29.74 in ENE 5.0 mph 9.0 mph 89 % 0.00 in
12:46 55.4 °F 52.2 °F 29.74 in ENE 5.0 mph 12.0 mph 89 % 0.00 in
12:51 55.4 °F 52.2 °F 29.73 in ENE 5.0 mph 12.0 mph 89 % 0.00 in
12:56 55.4 °F 52.2 °F 29.73 in ENE 7.0 mph 13.0 mph 89 % 0.00 in
13:01 55.4 °F 52.2 °F 29.74 in East 5.9 mph 10.4 mph 89 % 0.00 in
13:06 55.2 °F 52.0 °F 29.74 in ENE 3.7 mph 11.5 mph 89 % 0.00 in
13:11 55.2 °F 52.3 °F 29.74 in ENE 6.0 mph 10.0 mph 90 % 0.00 in
13:16 55.1 °F 52.5 °F 29.74 in ENE 5.0 mph 10.0 mph 91 % 0.00 in
13:21 55.1 °F 52.5 °F 29.75 in ENE 3.0 mph 7.0 mph 91 % 0.00 in
13:26 55.0 °F 52.7 °F 29.75 in ENE 2.0 mph 9.0 mph 92 % 0.00 in
13:31 55.0 °F 52.7 °F 29.75 in ENE 6.0 mph 9.0 mph 92 % 0.00 in
13:36 55.0 °F 52.7 °F 29.75 in ENE 5.0 mph 10.0 mph 92 % 0.00 in
13:41 54.9 °F 52.6 °F 29.75 in ENE 3.0 mph 9.0 mph 92 % 0.00 in
13:46 54.9 °F 52.9 °F 29.75 in ENE 2.0 mph 9.0 mph 93 % 0.00 in
13:51 54.8 °F 52.8 °F 29.75 in ENE 3.0 mph 9.0 mph 93 % 0.00 in
13:56 54.7 °F 52.7 °F 29.75 in ENE 2.0 mph 7.0 mph 93 % 0.00 in
14:01 54.7 °F 52.7 °F 29.76 in ENE 0.8 mph 3.5 mph 93 % 0.01 in
14:06 54.7 °F 53.0 °F 29.76 in ENE 1.0 mph 7.0 mph 94 % 0.00 in
14:07 54.7 °F 53.0 °F 29.76 in NE 1.1 mph 3.5 mph 94 % 0.01 in
14:12 54.7 °F 53.0 °F 29.76 in NE 1.4 mph 4.6 mph 94 % 0.01 in
14:17 54.6 °F 52.9 °F 29.76 in North 3.1 mph 4.6 mph 94 % 0.01 in
14:22 54.6 °F 52.9 °F 29.76 in ENE 4.0 mph 8.0 mph 94 % 0.02 in
14:27 54.6 °F 52.9 °F 29.76 in ENE 3.5 mph 7.0 mph 94 % 0.03 in
14:32 54.6 °F 52.9 °F 29.76 in North 2.1 mph 3.5 mph 94 % 0.04 in
14:37 54.7 °F 53.3 °F 29.76 in NE 3.0 mph 4.6 mph 95 % 0.04 in
14:42 54.9 °F 53.5 °F 29.77 in NE 3.8 mph 8.1 mph 95 % 0.05 in
14:47 55.2 °F 53.8 °F 29.77 in NE 2.8 mph 4.6 mph 95 % 0.05 in
14:54 55.4 °F 54.3 °F 29.77 in NNE 1.7 mph 7.0 mph 96 % 0.06 in
14:59 55.5 °F 54.4 °F 29.77 in NE 2.9 mph 4.6 mph 96 % 0.05 in
15:02 55.4 °F 54.0 °F 29.77 in ENE 3.0 mph 6.9 mph 95 % 0.05 in
15:08 55.3 °F 53.9 °F 29.77 in ENE 2.3 mph 4.6 mph 95 % 0.05 in
15:13 55.6 °F 54.2 °F 29.76 in ENE 2.2 mph 10.4 mph 95 % 0.05 in
15:18 55.9 °F 54.8 °F 29.76 in ENE 3.4 mph 8.1 mph 96 % 0.05 in
15:23 55.9 °F 54.5 °F 29.77 in ENE 2.1 mph 6.9 mph 95 % 0.04 in
15:28 55.9 °F 54.5 °F 29.77 in ENE 4.9 mph 6.9 mph 95 % 0.03 in
15:33 55.7 °F 54.3 °F 29.77 in NE 4.2 mph 6.9 mph 95 % 0.02 in
15:38 55.6 °F 53.9 °F 29.77 in NE 2.3 mph 5.8 mph 94 % 0.02 in
15:43 55.6 °F 53.9 °F 29.78 in ENE 3.5 mph 4.0 mph 94 % 0.01 in
15:48 55.7 °F 54.0 °F 29.78 in ENE 2.6 mph 3.5 mph 94 % 0.00 in
15:53 55.6 °F 53.9 °F 29.78 in NE 3.1 mph 6.9 mph 94 % 0.00 in
15:58 55.5 °F 53.8 °F 29.78 in ENE 0.6 mph 5.8 mph 94 % 0.00 in
16:03 55.5 °F 53.8 °F 29.78 in ENE 3.8 mph 8.1 mph 94 % 0.00 in
16:08 55.6 °F 53.9 °F 29.78 in NE 2.2 mph 6.9 mph 94 % 0.00 in
16:13 55.8 °F 54.1 °F 29.78 in NE 2.7 mph 7.0 mph 94 % 0.00 in
16:18 55.9 °F 54.2 °F 29.78 in NE 2.3 mph 6.9 mph 94 % 0.00 in
16:23 56.1 °F 54.4 °F 29.79 in ENE 3.3 mph 6.9 mph 94 % 0.00 in
16:28 56.1 °F 54.4 °F 29.79 in ENE 3.1 mph 7.0 mph 94 % 0.00 in
16:33 56.0 °F 54.0 °F 29.79 in NE 3.1 mph 8.1 mph 93 % 0.00 in
16:38 55.9 °F 53.6 °F 29.79 in ENE 3.4 mph 4.6 mph 92 % 0.00 in
16:43 55.8 °F 53.5 °F 29.79 in ENE 2.2 mph 4.6 mph 92 % 0.00 in
16:48 55.6 °F 53.3 °F 29.79 in East 2.4 mph 5.0 mph 92 % 0.00 in
16:53 55.5 °F 53.2 °F 29.79 in ENE 2.8 mph 4.6 mph 92 % 0.00 in
16:56 55.4 °F 53.1 °F 29.79 in ENE 3.4 mph 6.9 mph 92 % 0.00 in
17:01 55.2 °F 52.9 °F 29.79 in East 3.5 mph 7.0 mph 92 % 0.00 in
17:06 55.1 °F 52.5 °F 29.79 in ENE 5.6 mph 8.1 mph 91 % 0.00 in
17:11 55.0 °F 52.7 °F 29.79 in ENE 2.0 mph 6.0 mph 92 % 0.00 in
17:16 54.9 °F 52.6 °F 29.79 in ENE 3.0 mph 9.0 mph 92 % 0.00 in
17:21 54.9 °F 52.6 °F 29.79 in ENE 3.0 mph 7.0 mph 92 % 0.00 in
17:26 54.8 °F 52.5 °F 29.79 in ENE 6.0 mph 9.0 mph 92 % 0.00 in
17:31 54.7 °F 52.4 °F 29.79 in ENE 5.0 mph 10.0 mph 92 % 0.00 in
17:36 54.7 °F 52.4 °F 29.79 in ENE 3.0 mph 7.0 mph 92 % 0.00 in
17:41 54.7 °F 52.4 °F 29.80 in ENE 5.0 mph 8.0 mph 92 % 0.00 in
17:46 54.7 °F 52.4 °F 29.80 in ENE 5.0 mph 12.0 mph 92 % 0.00 in
17:51 54.6 °F 52.0 °F 29.80 in ENE 6.0 mph 10.0 mph 91 % 0.00 in
17:56 54.6 °F 52.0 °F 29.80 in ENE 5.0 mph 9.0 mph 91 % 0.00 in
18:01 54.6 °F 52.0 °F 29.80 in ENE 3.8 mph 6.9 mph 91 % 0.00 in
18:06 54.6 °F 52.0 °F 29.80 in ENE 5.6 mph 8.1 mph 91 % 0.00 in
18:11 54.5 °F 51.9 °F 29.80 in NNE 3.8 mph 5.8 mph 91 % 0.00 in
18:16 54.4 °F 51.8 °F 29.81 in NE 6.5 mph 8.1 mph 91 % 0.00 in
18:21 54.3 °F 51.4 °F 29.81 in East 4.9 mph 10.4 mph 90 % 0.00 in
18:26 54.2 °F 51.3 °F 29.81 in ENE 4.8 mph 10.4 mph 90 % 0.00 in
18:31 54.2 °F 51.3 °F 29.81 in East 5.9 mph 10.4 mph 90 % 0.00 in
18:36 54.2 °F 51.3 °F 29.82 in ENE 4.3 mph 6.9 mph 90 % 0.00 in
18:41 54.1 °F 51.2 °F 29.82 in NE 4.7 mph 8.1 mph 90 % 0.00 in
18:46 54.1 °F 51.2 °F 29.82 in ENE 5.6 mph 9.2 mph 90 % 0.00 in
18:51 54.0 °F 50.8 °F 29.82 in NE 5.7 mph 11.5 mph 89 % 0.00 in
18:56 54.0 °F 50.8 °F 29.83 in ENE 4.8 mph 10.4 mph 89 % 0.00 in
19:01 54.0 °F 50.8 °F 29.83 in ENE 4.7 mph 6.9 mph 89 % 0.00 in
19:06 54.1 °F 50.9 °F 29.83 in ENE 6.7 mph 11.5 mph 89 % 0.00 in
19:11 54.1 °F 51.2 °F 29.84 in East 4.6 mph 9.2 mph 90 % 0.00 in
19:16 54.1 °F 51.2 °F 29.83 in NE 3.9 mph 4.6 mph 90 % 0.00 in
19:21 54.0 °F 51.1 °F 29.83 in East 6.2 mph 9.2 mph 90 % 0.00 in
19:26 54.0 °F 50.8 °F 29.84 in ENE 3.8 mph 6.9 mph 89 % 0.00 in
19:31 54.0 °F 51.1 °F 29.83 in NE 4.5 mph 9.2 mph 90 % 0.00 in
19:36 53.9 °F 51.0 °F 29.84 in NE 7.0 mph 11.5 mph 90 % 0.00 in
19:41 53.9 °F 50.7 °F 29.84 in NE 6.6 mph 11.5 mph 89 % 0.00 in
19:46 53.7 °F 50.5 °F 29.84 in ENE 5.4 mph 8.1 mph 89 % 0.00 in
19:51 53.6 °F 50.4 °F 29.85 in East 6.2 mph 7.0 mph 89 % 0.00 in
19:56 53.6 °F 50.4 °F 29.85 in ENE 5.6 mph 7.0 mph 89 % 0.00 in
20:02 53.5 °F 50.3 °F 29.85 in NE 5.8 mph 11.5 mph 89 % 0.00 in
20:07 53.4 °F 50.2 °F 29.85 in ENE 4.4 mph 4.6 mph 89 % 0.00 in
20:12 53.3 °F 50.4 °F 29.85 in ENE 5.5 mph 11.5 mph 90 % 0.00 in
20:17 53.2 °F 50.0 °F 29.85 in ENE 4.9 mph 11.5 mph 89 % 0.00 in
20:22 53.2 °F 50.3 °F 29.86 in NE 4.1 mph 6.9 mph 90 % 0.00 in
20:23 53.2 °F 50.3 °F 29.86 in ENE 5.2 mph 11.5 mph 90 % 0.00 in
20:28 53.1 °F 49.9 °F 29.85 in ENE 4.1 mph 9.0 mph 89 % 0.00 in
20:31 53.1 °F 49.6 °F 29.85 in ENE 4.8 mph 9.2 mph 88 % 0.00 in
20:36 53.0 °F 49.5 °F 29.85 in ENE 6.2 mph 10.4 mph 88 % 0.00 in
20:41 53.1 °F 49.6 °F 29.86 in ENE 4.1 mph 8.1 mph 88 % 0.00 in
20:46 53.1 °F 49.9 °F 29.86 in NE 5.2 mph 9.2 mph 89 % 0.00 in
20:51 53.1 °F 49.6 °F 29.86 in ENE 2.7 mph 5.8 mph 88 % 0.00 in
20:56 53.1 °F 49.9 °F 29.86 in ENE 4.2 mph 12.0 mph 89 % 0.00 in
21:01 53.1 °F 49.6 °F 29.86 in North 2.2 mph 9.2 mph 88 % 0.00 in
21:06 53.1 °F 49.6 °F 29.86 in ENE 3.4 mph 9.2 mph 88 % 0.00 in
21:11 53.0 °F 49.5 °F 29.86 in NE 3.2 mph 9.2 mph 88 % 0.00 in
21:16 53.0 °F 49.5 °F 29.86 in ENE 4.9 mph 8.1 mph 88 % 0.00 in
21:21 53.0 °F 49.2 °F 29.86 in ENE 4.8 mph 8.1 mph 87 % 0.00 in
21:26 53.0 °F 49.2 °F 29.87 in ENE 6.6 mph 13.8 mph 87 % 0.00 in
21:31 52.9 °F 48.8 °F 29.87 in ENE 5.8 mph 10.4 mph 86 % 0.00 in
21:36 53.0 °F 48.6 °F 29.87 in ENE 7.4 mph 10.4 mph 85 % 0.00 in
21:41 53.0 °F 48.6 °F 29.87 in ENE 8.4 mph 13.8 mph 85 % 0.00 in
21:46 53.0 °F 48.3 °F 29.87 in ENE 5.8 mph 10.4 mph 84 % 0.00 in
21:51 53.1 °F 48.7 °F 29.88 in East 5.4 mph 9.2 mph 85 % 0.00 in
21:56 53.1 °F 48.7 °F 29.88 in ENE 6.0 mph 8.1 mph 85 % 0.00 in
22:01 53.1 °F 48.7 °F 29.88 in ENE 6.2 mph 10.4 mph 85 % 0.00 in
22:06 53.1 °F 48.7 °F 29.88 in ENE 7.4 mph 11.5 mph 85 % 0.00 in
22:16 53.2 °F 49.1 °F 29.88 in ENE 3.1 mph 9.2 mph 86 % 0.00 in
22:21 53.2 °F 49.4 °F 29.89 in NE 3.2 mph 4.6 mph 87 % 0.00 in
22:26 53.2 °F 49.4 °F 29.89 in ENE 3.5 mph 6.9 mph 87 % 0.00 in
22:31 53.1 °F 49.3 °F 29.88 in NE 4.7 mph 7.0 mph 87 % 0.00 in
22:37 53.1 °F 49.3 °F 29.88 in NNE 3.5 mph 6.0 mph 87 % 0.00 in
22:42 53.0 °F 49.2 °F 29.88 in NE 3.9 mph 4.6 mph 87 % 0.00 in
22:47 52.9 °F 49.1 °F 29.88 in ENE 3.5 mph 9.0 mph 87 % 0.00 in
22:52 52.8 °F 49.0 °F 29.88 in ENE 3.0 mph 8.1 mph 87 % 0.00 in
22:57 52.7 °F 48.9 °F 29.88 in NNE 2.7 mph 4.0 mph 87 % 0.00 in
23:02 52.7 °F 48.9 °F 29.88 in NNE 3.1 mph 6.9 mph 87 % 0.00 in
23:07 52.6 °F 48.8 °F 29.88 in NNE 2.9 mph 5.8 mph 87 % 0.00 in
23:12 52.6 °F 49.1 °F 29.88 in ENE 3.6 mph 9.2 mph 88 % 0.00 in
23:17 52.5 °F 49.0 °F 29.88 in East 4.6 mph 9.2 mph 88 % 0.00 in
23:22 52.5 °F 49.0 °F 29.89 in NNE 3.1 mph 7.0 mph 88 % 0.00 in
23:27 52.5 °F 49.0 °F 29.89 in ENE 3.9 mph 9.2 mph 88 % 0.00 in
23:32 52.4 °F 48.9 °F 29.89 in ENE 3.1 mph 5.8 mph 88 % 0.00 in
23:37 52.4 °F 48.9 °F 29.89 in NNE 3.8 mph 8.1 mph 88 % 0.00 in
23:42 52.4 °F 48.9 °F 29.89 in ENE 2.9 mph 8.1 mph 88 % 0.00 in
23:47 52.4 °F 49.3 °F 29.89 in ENE 2.5 mph 5.8 mph 89 % 0.00 in
23:52 52.4 °F 49.3 °F 29.89 in NE 1.7 mph 8.1 mph 89 % 0.00 in
23:57 52.4 °F 49.3 °F 29.89 in ENE 2.4 mph 5.8 mph 89 % 0.00 in
Crab Meadow Weather
Compliments of Weather Underground - 3 mb

Script developed by  Jim McMurry - jmcmurry@mwt.net Adapted for the template by  Wim van der Kuil - Leuven-Template.eu

Weather Terms: Watch - A watch is used when the risk of a hazardous weather or hydrologic event has increased significantly, but its occurrence, location or timing is still uncertain. It is intended to provide enough lead time so those who need to set their plans in motion can do so. A watch means that hazardous weather is possible. People should have a plan of action in case a storm threatens and they should listen for later information and possible warnings especially when planning travel or outdoor activities.